Dewpoint
25 23 21 20 20 19 20 19 20 19 18 18 17 16 15 13 12 11 11 12 12 12 13 16 15 14 13 14 13 12 11 12 11 12 12 12 11 11 11 10 9 8 8 7 7 6 6 6 5 4 5 5 6 7 8 11 8 8 8 6 6 6 13
25 23 21 20 19 19 18 19 19 18 18 18 17 16 14 13 12 12 12 13 14 15 14 15 15 15 15 15 14 11 10 12 12 13 12 12 12 10 11 10 10 9 9 7 7 7 6 5 5 5 7 5 6 5 7 7 8 6 7 6 6 5 6
26 24 21 21 20 20 19 18 18 18 19 18 17 16 14 13 12 12 13 15 15 15 16 15 16 15 15 14 14 13 11 12 12 13 12 12 12 12 10 10 10 10 9 8 7 7 6 6 6 5 5 6 5 5 5 7 7 7 6 6 5 5 3
27 25 24 23 21 20 19 18 18 19 19 19 18 16 15 14 14 14 16 16 17 16 16 15 15 15 14 14 14 13 12 13 12 12 12 12 12 12 10 10 10 10 10 9 7 6 6 6 6 6 6 6 5 5 7 7 7 8 5 5 4 4 3
28 27 26 24 23 20 19 19 19 20 19 19 18 17 16 18 18 18 17 17 17 17 16 16 15 15 15 14 13 14 12 13 13 13 13 12 12 12 11 11 10 10 10 9 7 7 7 8 8 6 7 6 5 5 6 6 5 5 4 4 4 3 3
29 28 27 25 23 22 21 20 20 20 21 19 19 18 20 20 19 19 18 18 18 18 17 16 16 15 15 15 14 13 14 14 14 14 13 13 12 12 12 11 10 10 9 9 8 8 8 8 7 6 6 5 6 6 5 4 4 3 3 4 3 3 3
29 29 27 26 25 24 23 22 22 21 20 20 20 21 21 20 20 19 19 19 19 18 18 17 16 16 15 15 15 14 14 14 14 14 14 14 14 13 13 12 12 11 10 9 9 9 9 8 7 6 6 7 8 8 6 3 3 2 2 2 1 1 2
30 29 28 28 27 26 25 24 23 22 22 22 22 22 21 20 19 19 19 19 19 18 18 18 17 17 16 16 15 14 14 14 14 14 14 14 14 14 13 12 12 11 11 11 10 9 8 8 6 6 7 8 8 6 4 3 2 2 2 2 2 1 1
30 29 29 28 28 27 26 25 23 23 23 23 23 22 21 21 20 19 19 18 18 18 18 18 17 17 16 16 17 17 16 16 15 13 13 13 14 14 13 12 12 11 11 11 10 10 9 9 8 7 8 7 7 6 5 5 6 5 5 4 3 1 1
30 30 29 29 28 28 26 25 24 24 25 25 23 22 21 21 20 20 19 18 18 17 17 17 17 17 18 18 18 18 18 18 18 17 14 13 13 13 13 12 11 11 11 11 10 10 10 9 10 10 8 8 7 7 8 8 6 4 4 4 5 3 4
30 30 29 28 28 27 26 25 24 25 27 27 27 23 22 21 20 20 19 18 18 17 17 17 17 16 18 18 18 18 19 18 18 18 18 17 17 16 13 12 11 11 11 11 11 10 11 11 11 10 9 9 10 9 7 6 4 3 4 4 4 4 6
30 29 29 28 28 27 26 25 25 26 27 28 28 26 22 21 20 20 19 19 18 17 17 16 16 16 16 17 17 18 18 18 19 19 19 18 18 18 18 17 13 11 11 11 11 12 13 13 13 13 13 11 10 8 6 5 4 6 6 6 6 6 4
30 30 29 29 28 27 26 25 25 27 28 28 28 28 24 21 21 20 19 19 18 18 17 16 16 15 15 16 19 18 18 18 18 19 20 19 19 19 19 19 18 17 14 14 14 14 14 13 13 11 10 10 8 7 7 8 8 10 9 9 7 6 5
30 30 29 28 27 26 25 24 25 27 28 28 29 29 26 21 21 20 19 19 19 18 17 17 16 15 14 15 17 17 17 17 17 18 19 19 19 18 19 20 20 20 20 20 17 12 10 11 9 8 8 9 9 9 9 10 10 11 9 9 7 6 5
30 29 29 28 27 26 25 24 26 27 28 28 29 29 28 21 20 20 19 19 18 18 18 17 16 15 15 15 15 18 17 16 16 15 15 16 16 15 14 13 13 12 11 11 10 9 9 9 10 9 9 11 12 12 13 14 12 10 9 7 6 4 3
30 29 29 28 27 25 24 24 26 27 27 28 28 28 28 22 20 20 19 19 18 18 17 17 16 16 15 14 14 17 20 18 15 14 13 13 13 12 12 11 14 15 16 14 13 11 10 10 11 15 15 16 16 14 11 8 6 5 3 0 -2 -4 -3
30 30 29 27 26 25 24 24 26 27 27 28 28 28 27 22 20 19 19 18 18 17 17 16 16 16 15 14 14 17 21 21 18 13 12 11 11 11 11 10 11 15 14 16 18 18 19 19 20 18 18 17 16 11 9 5 1 -1 -2 -4 -6 -7 -8
30 29 28 27 26 25 24 23 25 27 27 28 28 28 26 21 20 19 18 18 18 17 17 16 19 17 15 14 13 18 21 22 19 12 12 11 11 10 10 10 10 7 9 16 16 15 15 15 14 13 11 9 11 11 8 2 -2 -2 -5 -7 -8 -10 -10
29 29 27 26 25 26 24 23 24 26 27 27 28 27 25 21 20 18 17 17 16 17 16 16 18 19 16 15 15 19 21 21 19 13 13 12 11 10 9 10 10 9 7 4 1 -0 -4 -3 -0 -8 -11 -9 6 6 3 -3 -5 -7 -10 -11 -11 -11 -11
28 28 26 26 25 24 25 24 23 24 27 27 27 27 25 21 19 18 17 16 16 15 15 16 16 18 19 19 19 20 21 21 21 15 14 13 12 11 10 11 10 7 7 1 -4 -7 -11 -11 -12 -12 -14 -14 -14 -13 -11 -9 -8 -7 -8 -10 -11 -11 -11
27 26 25 25 24 24 24 24 23 23 26 27 27 27 26 21 20 19 17 16 15 15 14 15 15 17 19 20 20 20 21 21 22 20 16 15 13 13 12 12 7 9 8 -3 -9 -11 -13 -13 -14 -15 -15 -15 -14 -13 -12 -11 -10 -10 -9 -9 -10 -11 -11
25 25 24 23 23 22 23 23 23 22 25 26 27 27 28 22 21 19 17 16 15 15 14 14 15 16 19 21 21 21 21 21 21 22 16 15 17 17 17 5 1 -5 -8 -10 -12 -12 -13 -14 -15 -14 -14 -14 -14 -13 -13 -13 -13 -12 -11 -10 -9 -10 -11
24 23 22 21 21 21 21 22 22 23 22 25 26 26 28 25 22 23 18 17 15 15 14 14 15 16 20 22 22 21 21 21 20 20 16 19 18 17 15 5 -7 -8 -12 -12 -13 -13 -13 -14 -15 -15 -14 -14 -14 -14 -14 -14 -14 -13 -12 -11 -10 -8 -8
22 21 20 19 19 19 20 21 21 23 23 23 25 26 27 27 25 24 19 18 16 16 15 14 15 16 22 22 22 21 21 21 19 16 18 18 19 14 8 -8 -10 -11 -12 -13 -13 -14 -14 -14 -14 -15 -15 -14 -14 -14 -14 -14 -14 -13 -12 -12 -11 -9 -7
22 20 19 19 18 18 19 19 20 21 23 23 24 25 26 27 26 24 22 18 17 16 16 17 19 20 22 22 21 21 21 21 18 18 19 17 13 6 -8 -10 -12 -12 -14 -13 -13 -13 -14 -14 -14 -14 -14 -14 -13 -14 -14 -15 -14 -13 -12 -11 -9 -8 -6
21 20 19 18 18 18 18 18 19 19 20 22 23 24 25 27 26 24 22 20 18 19 20 21 21 22 22 21 20 17 14 13 16 18 15 10 3 -9 -9 -11 -10 -11 -13 -13 -14 -14 -13 -13 -14 -14 -14 -14 -14 -16 -16 -15 -15 -14 -13 -12 -11 -10 -8
20 19 18 18 18 17 17 17 17 18 18 20 21 21 23 24 25 24 23 20 19 20 19 20 20 20 21 19 18 17 17 13 10 -0 -7 -11 -11 -11 -10 -8 -8 -9 -12 -13 -14 -14 -14 -14 -14 -15 -15 -16 -16 -16 -16 -15 -14 -14 -14 -13 -12 -11 -10
20 19 18 18 17 17 16 16 16 17 17 18 20 20 21 22 23 23 20 18 19 19 19 20 21 18 11 7 4 2 -2 -5 -8 -10 -11 -13 -13 -12 -8 0 3 -1 -15 -16 -16 -15 -16 -16 -16 -17 -16 -16 -16 -16 -16 -15 -14 -13 -14 -14 -13 -12 -11
21 20 20 19 18 16 15 15 15 16 19 18 21 20 19 20 21 22 19 20 21 16 12 11 9 7 7 5 2 -0 -4 -6 -9 -12 -13 -14 -14 -13 -14 -13 -12 -12 -14 -15 -15 -15 -15 -16 -17 -17 -17 -17 -16 -16 -15 -15 -13 -13 -16 -14 -14 -14 -13
24 23 20 19 19 18 16 15 16 19 21 21 22 23 22 22 23 23 20 22 19 15 11 10 9 6 4 2 1 -0 -4 -7 -9 -10 -10 -10 -3 -14 -14 -15 -16 -16 -15 -14 -14 -15 -16 -16 -17 -17 -17 -17 -17 -16 -16 -14 -6 -15 -15 -15 -15 -15 -14
24 25 25 20 19 19 21 20 20 21 22 22 23 23 22 23 24 24 23 22 15 12 10 8 5 4 2 0 -0 -2 -3 -9 -11 -11 -10 -9 -11 -14 -10 -11 -15 -15 -15 -14 -15 -16 -17 -17 -18 -18 -18 -18 -17 -17 -16 -16 -16 -16 -16 -15 -15 -15 -14
22 23 24 24 22 20 19 21 21 21 22 23 23 23 23 23 24 24 24 21 18 10 8 6 3 2 -0 -1 -2 -6 -9 -10 -11 -11 -11 -11 -12 -12 -15 -14 -13 -14 -16 -15 -16 -17 -16 -17 -18 -18 -18 -18 -18 -17 -17 -16 -16 -16 -16 -15 -15 -14 -13
20 21 21 22 24 23 21 22 22 22 23 23 23 23 23 23 24 24 23 20 12 9 7 6 3 1 -1 -2 -5 -9 -10 -11 -11 -12 -12 -12 -11 -12 -13 -14 -14 -13 -16 -14 -13 -16 -17 -18 -18 -18 -18 -19 -19 -18 -18 -17 -17 -16 -16 -15 -15 -14 -14
18 18 19 19 22 25 23 23 22 22 23 23 23 23 23 23 23 24 22 16 10 8 6 4 3 1 -1 -3 -7 -10 -11 -12 -12 -13 -13 -14 -14 -14 -16 -16 -19 -18 -16 -17 -17 -18 -17 -18 -19 -19 -19 -18 -18 -18 -19 -17 -17 -17 -16 -16 -16 -16 -15
12 15 17 17 19 24 24 23 23 23 23 23 23 23 23 23 21 19 15 11 8 7 6 4 2 -0 -3 -6 -9 -10 -11 -11 -12 -13 -13 -13 -15 -17 -18 -19 -17 -17 -18 -18 -19 -18 -17 -17 -19 -20 -19 -20 -19 -18 -18 -18 -18 -18 -16 -16 -16 -15 -15
11 12 15 18 19 22 24 23 22 22 23 23 23 23 23 20 17 13 10 8 7 6 5 4 2 -1 -4 -7 -9 -10 -11 -11 -12 -12 -12 -13 -14 -16 -17 -16 -16 -16 -18 -19 -20 -18 -14 -16 -20 -21 -20 -20 -20 -20 -20 -19 -19 -18 -17 -15 -16 -15 -16